When you browse on this site, cookies collect data to enhance your experience and personalize the content and advertising you see.
Visit our Privacy Policy to learn more. By continuing to use the site, you agree to this use of cookies and data.
  • In Czech Republic
  • List of Countries
  • For 7 days
  • Water Temperature
  • Weather Map
  • Weather Widgets
  • user-avatar
    Login

    Hourly Weather Bruges

    Today, 6 June, Saturday

    Time Temperature Precipitation Wind Pressure Humidity
    00:00 +7°C° 0.1 mm 6 mps 747 mmHg 83%
    01:00 +7°C° 0.2 mm 6 mps 747 mmHg 83%
    02:00 +7°C° 0.2 mm 6 mps 747 mmHg 83%
    03:00 +7°C° 0.2 mm 6 mps 747 mmHg 83%
    04:00 +8°C° 0.2 mm 6 mps 747 mmHg 81%
    05:00 +8°C° 0.2 mm 6 mps 748 mmHg 79%
    06:00 +9°C° 0.2 mm 7 mps 748 mmHg 78%
    07:00 +10°C° 0 mm 8 mps 748 mmHg 69%
    08:00 +11°C° 0 mm 9 mps 748 mmHg 61%
    09:00 +12°C° 0 mm 10 mps 748 mmHg 52%
    10:00 +12°C° 0 mm 11 mps 748 mmHg 51%
    11:00 +13°C° 0 mm 12 mps 748 mmHg 49%
    12:00 +13°C° 0 mm 12 mps 748 mmHg 48%
    13:00 +13°C° 0 mm 12 mps 748 mmHg 52%
    14:00 +12°C° 0 mm 12 mps 748 mmHg 57%
    15:00 +10°C° 0 mm 12 mps 748 mmHg 61%
    16:00 +11°C° 0.3 mm 11 mps 748 mmHg 67%
    17:00 +11°C° 0.3 mm 11 mps 748 mmHg 72%
    18:00 +9°C° 0.3 mm 10 mps 748 mmHg 77%
    19:00 +10°C° 0.2 mm 9 mps 748 mmHg 80%
    20:00 +10°C° 0.2 mm 9 mps 749 mmHg 83%
    21:00 +10°C° 0.2 mm 8 mps 749 mmHg 86%
    22:00 +10°C° 0.3 mm 7 mps 749 mmHg 88%
    23:00 +9°C° 0.3 mm 6 mps 749 mmHg 90%

    Tomorrow, 7 June, Sunday

    Time Temperature Precipitation Wind Pressure Humidity
    00:00 +9°C° 0.3 mm 6 mps 749 mmHg 92%
    01:00 +9°C° 0.2 mm 6 mps 749 mmHg 92%
    02:00 +8°C° 0.2 mm 6 mps 750 mmHg 91%
    03:00 +8°C° 0.2 mm 6 mps 750 mmHg 91%
    04:00 +9°C° 0.1 mm 6 mps 751 mmHg 88%
    05:00 +10°C° 0.1 mm 6 mps 751 mmHg 85%
    06:00 +10°C° 0.1 mm 6 mps 752 mmHg 82%
    07:00 +11°C° 0 mm 6 mps 752 mmHg 76%
    08:00 +13°C° 0 mm 6 mps 753 mmHg 70%
    09:00 +14°C° 0 mm 6 mps 753 mmHg 64%
    10:00 +15°C° 0 mm 6 mps 754 mmHg 62%
    11:00 +15°C° 0 mm 6 mps 754 mmHg 60%
    12:00 +16°C° 0 mm 6 mps 755 mmHg 57%
    13:00 +16°C° 0 mm 5 mps 755 mmHg 56%
    14:00 +17°C° 0 mm 5 mps 755 mmHg 56%
    15:00 +17°C° 0 mm 5 mps 755 mmHg 55%
    16:00 +17°C° 0 mm 4 mps 756 mmHg 59%
    17:00 +17°C° 0 mm 4 mps 756 mmHg 62%
    18:00 +17°C° 0 mm 4 mps 756 mmHg 65%
    19:00 +14°C° 0 mm 3 mps 757 mmHg 71%
    20:00 +13°C° 0 mm 3 mps 757 mmHg 77%
    21:00 +12°C° 0 mm 3 mps 758 mmHg 83%
    22:00 +12°C° 0 mm 3 mps 758 mmHg 84%
    23:00 +12°C° 0 mm 3 mps 758 mmHg 84%

    Day after tomorrow, 8 June, Monday

    Time Temperature Precipitation Wind Pressure Humidity
    00:00 +12°C° 0 mm 3 mps 758 mmHg 85%
    01:00 +11°C° 0.1 mm 3 mps 758 mmHg 87%
    02:00 +11°C° 0.1 mm 3 mps 758 mmHg 90%
    03:00 +11°C° 0.1 mm 3 mps 758 mmHg 93%
    04:00 +12°C° 0 mm 3 mps 758 mmHg 90%
    05:00 +12°C° 0 mm 3 mps 758 mmHg 87%
    06:00 +13°C° 0 mm 3 mps 759 mmHg 84%
    07:00 +14°C° 0.1 mm 4 mps 759 mmHg 80%
    08:00 +15°C° 0.1 mm 5 mps 759 mmHg 76%
    09:00 +16°C° 0.1 mm 6 mps 760 mmHg 72%
    10:00 +16°C° 0.1 mm 6 mps 760 mmHg 69%
    11:00 +16°C° 0.1 mm 6 mps 760 mmHg 66%
    12:00 +17°C° 0.1 mm 7 mps 760 mmHg 62%
    13:00 +16°C° 0 mm 7 mps 760 mmHg 64%
    14:00 +16°C° 0 mm 7 mps 760 mmHg 65%
    15:00 +16°C° 0 mm 8 mps 760 mmHg 66%
    16:00 +15°C° 0 mm 8 mps 760 mmHg 69%
    17:00 +15°C° 0 mm 7 mps 760 mmHg 72%
    18:00 +14°C° 0 mm 7 mps 760 mmHg 76%
    19:00 +14°C° 0 mm 7 mps 761 mmHg 77%
    20:00 +12°C° 0 mm 7 mps 761 mmHg 78%
    21:00 +13°C° 0 mm 6 mps 762 mmHg 80%
    22:00 +11°C° 0 mm 6 mps 762 mmHg 81%
    23:00 +11°C° 0 mm 6 mps 762 mmHg 82%

    9 June, Tuesday

    Time Temperature Precipitation Wind Pressure Humidity
    00:00 +11°C° 0 mm 6 mps 762 mmHg 82%
    01:00 +11°C° 0 mm 6 mps 762 mmHg 82%
    02:00 +12°C° 0 mm 5 mps 762 mmHg 81%
    03:00 +12°C° 0 mm 5 mps 762 mmHg 81%
    04:00 +12°C° 0 mm 5 mps 762 mmHg 80%
    05:00 +11°C° 0 mm 6 mps 763 mmHg 79%
    06:00 +11°C° 0 mm 6 mps 763 mmHg 78%
    07:00 +13°C° 0 mm 6 mps 763 mmHg 75%
    08:00 +13°C° 0 mm 5 mps 763 mmHg 72%
    09:00 +13°C° 0 mm 5 mps 764 mmHg 68%
    10:00 +14°C° 0 mm 5 mps 764 mmHg 66%
    11:00 +15°C° 0 mm 5 mps 764 mmHg 63%
    12:00 +15°C° 0 mm 5 mps 764 mmHg 60%
    13:00 +15°C° 0 mm 5 mps 764 mmHg 59%
    14:00 +15°C° 0 mm 6 mps 763 mmHg 59%
    15:00 +15°C° 0 mm 6 mps 763 mmHg 58%
    16:00 +14°C° 0 mm 6 mps 763 mmHg 61%
    17:00 +14°C° 0 mm 6 mps 764 mmHg 63%
    18:00 +13°C° 0 mm 6 mps 764 mmHg 66%
    19:00 +11°C° 0 mm 6 mps 764 mmHg 70%
    20:00 +10°C° 0 mm 5 mps 765 mmHg 75%
    21:00 +9°C° 0 mm 5 mps 765 mmHg 80%
    22:00 +10°C° 0 mm 4 mps 765 mmHg 82%
    23:00 +8°C° 0 mm 4 mps 765 mmHg 84%

    10 June, Wednesday

    Time Temperature Precipitation Wind Pressure Humidity
    00:00 +8°C° 0 mm 4 mps 765 mmHg 86%
    01:00 +8°C° 0 mm 4 mps 765 mmHg 86%
    02:00 +8°C° 0 mm 3 mps 765 mmHg 86%
    03:00 +8°C° 0 mm 3 mps 765 mmHg 86%
    04:00 +9°C° 0 mm 3 mps 765 mmHg 82%
    05:00 +10°C° 0 mm 3 mps 766 mmHg 78%
    06:00 +11°C° 0 mm 4 mps 766 mmHg 73%
    07:00 +12°C° 0 mm 4 mps 766 mmHg 68%
    08:00 +14°C° 0 mm 4 mps 766 mmHg 63%
    09:00 +15°C° 0 mm 4 mps 766 mmHg 58%
    10:00 +16°C° 0 mm 5 mps 766 mmHg 57%
    11:00 +16°C° 0 mm 5 mps 766 mmHg 56%
    12:00 +17°C° 0 mm 6 mps 766 mmHg 55%
    13:00 +17°C° 0 mm 6 mps 766 mmHg 56%
    14:00 +17°C° 0 mm 6 mps 765 mmHg 58%
    15:00 +16°C° 0 mm 6 mps 765 mmHg 59%
    16:00 +16°C° 0 mm 6 mps 765 mmHg 62%
    17:00 +15°C° 0 mm 6 mps 766 mmHg 66%
    18:00 +14°C° 0 mm 7 mps 766 mmHg 70%
    19:00 +13°C° 0 mm 6 mps 766 mmHg 74%
    20:00 +12°C° 0 mm 5 mps 766 mmHg 79%
    21:00 +10°C° 0 mm 5 mps 767 mmHg 84%
    22:00 +9°C° 0 mm 5 mps 767 mmHg 86%
    23:00 +10°C° 0 mm 4 mps 767 mmHg 87%

    11 June, Thursday

    Time Temperature Precipitation Wind Pressure Humidity
    00:00 +10°C° 0 mm 4 mps 766 mmHg 89%
    01:00 +9°C° 0 mm 3 mps 766 mmHg 89%
    02:00 +9°C° 0 mm 3 mps 766 mmHg 89%
    03:00 +9°C° 0 mm 3 mps 766 mmHg 89%
    04:00 +10°C° 0 mm 3 mps 766 mmHg 85%
    05:00 +11°C° 0 mm 3 mps 766 mmHg 81%
    06:00 +12°C° 0 mm 3 mps 767 mmHg 76%
    07:00 +13°C° 0 mm 3 mps 766 mmHg 70%
    08:00 +14°C° 0 mm 4 mps 766 mmHg 64%
    09:00 +17°C° 0 mm 4 mps 766 mmHg 58%
    10:00 +18°C° 0 mm 4 mps 766 mmHg 56%
    11:00 +18°C° 0 mm 4 mps 766 mmHg 54%
    12:00 +19°C° 0 mm 5 mps 766 mmHg 52%
    13:00 +19°C° 0 mm 5 mps 765 mmHg 53%
    14:00 +19°C° 0 mm 5 mps 765 mmHg 55%
    15:00 +19°C° 0 mm 6 mps 765 mmHg 56%
    16:00 +17°C° 0 mm 6 mps 765 mmHg 59%
    17:00 +16°C° 0 mm 6 mps 764 mmHg 62%
    18:00 +16°C° 0 mm 6 mps 764 mmHg 66%
    19:00 +14°C° 0 mm 6 mps 765 mmHg 72%
    20:00 +13°C° 0 mm 5 mps 765 mmHg 79%
    21:00 +12°C° 0 mm 5 mps 765 mmHg 85%
    22:00 +12°C° 0 mm 4 mps 765 mmHg 88%
    23:00 +12°C° 0 mm 4 mps 765 mmHg 90%
    Show more